STARLINK-5654 (55366 NORAD) Tracking and Keplerian Element Data

This shows tracking and keplerian element data for the satellite.

Feedback or suggestion? Click here.




ElementValue
Catalog55366
NameSTARLINK-5654
Epoch Orbit1622
Epoch Day127.25001157
Epoch Year2023
RAAN164.7602
Inclination42.997
Eccentricity0.0001083
Argument of Perigee276.4449
Mean Anonmoly248.1886
Mean Motion15.04792327
Decay Rate-0.00431919
L11 55366U 23013AM 23127.25001157 -.00431919 00000+0 -31978-1 0 9997
L22 55366 42.9970 164.7602 0001083 276.4449 248.1886 15.04792327 16220



Live tracking and technical data element details for STARLINK-5654 (NORAD 55366). STARLINK-5654 can be tracked NOW for your location showing map with azimuth and elevation plus other details from your city location.







IsCatalogInMostPopularTable: catalog: 55366, numindb: -1

Insert: records affected: 1


GetName: 55366 STARLINK-5654

Hit Count: inserted at: Sun, 28 May 2023 07:09:27 GMT